Location: *
(51.5000°N, 0.1100°W)
Time: 00:33:47
(UTC+00:00)

MSX - Pass Details

Date: 11 August 2024
Orbit: 895 x 904 km, 99.0° (Epoch: 09 September)

Event Time Altitude Azimuth Distance (km) Brightness Sun altitude
Rises 03:46:09 0° 9° (N) 3,545 7.7 -8.0°
Reaches altitude 10° 03:49:05 10° 354° (N) 2,600 6.7 -7.6°
Maximum altitude 03:53:20 22° 307° (NW) 1,889 5.4 -7.1°
Drops below altitude 10° 03:57:34 10° 259° (W) 2,588 5.7 -6.6°
Enters shadow 03:58:39 - 253° (WSW) 2,910 5.9 -6.4°
